Location: Carson
(33.8314°N, 118.2820°W)
Time: 22:35:15
(UTC+00:00)

FALCON 9 DEB - Pass Details

Date: 23 November 2020
Orbit: 373 x 394 km, 53.0° (Epoch: 19 January)

Event Time Altitude Azimuth Distance (km) Brightness Sun altitude
Rises 13:30:02 0° 211° (SSW) 2,263 6.6 -13.2°
Reaches altitude 10° 13:32:07 10° 205° (SSW) 1,417 5.6 -12.8°
Maximum altitude 13:35:10 44° 131° (SE) 551 4.1 -12.1°
Drops below altitude 10° 13:38:15 10° 57° (ENE) 1,439 6.3 -11.5°
Sets 13:40:23 0° 51° (NE) 2,303 7.3 -11.1°
